[[{"header":{"parameterUnit":"m.s-1","parameterCategory":1,"la1":30.2991,"la2":30.254,"lo1":-89.0895,"lo2":-89.0444,"dy":0.0017,"dx":0.0017,"nx":28,"ny":28,"refTime":"2024-07-17T21:00:00:Z","depth":0,"parameterNumber":2,"parameterNumberName":"U-component_of_WINDS"},"data":[0,0,0,0,0,0,0,0,0,0,0,0,0,0,0,0,0,0,0,0,0,0,0,0,0,0,0,0,0,0,0,0,0,0,0,0,0,0,0,0,0,0,0,0,0,0,0,0,0,0,0,0,0,0,0,0,0,0,3.63,3.6302,0,3.6463,3.6465,3.6467,3.6457,3.6454,3.6452,3.645,3.6615,3.6621,3.6628,0,0,0,0,0,0,0,0,0,0,0,0,0,3.5974,3.598,3.63,3.6302,3.6304,3.6463,3.6465,3.6467,3.6457,3.6454,3.6451,3.6449,3.6612,3.662,3.6628,0,0,0,0,0,0,0,0,0,0,0,0,0,3.6124,3.5982,3.63,3.6318,3.6321,3.6463,3.6465,3.6468,3.6458,3.6454,3.6451,3.6447,3.661,3.6619,3.6629,3.6762,0,0,3.666,3.6664,0,0,0,0,0,0,0,0,3.6116,3.6136,3.6313,3.6317,3.6321,3.6436,3.6411,3.6567,3.6459,3.6406,3.645,3.6445,3.6558,3.6572,3.661,3.677,3.6777,3.666,3.6666,3.6671,3.6673,0,0,0,0,0,0,0,3.6106,3.6129,3.6364,3.6316,3.6321,3.6317,3.6334,3.644,3.65,3.641,3.641,3.6429,3.6559,3.6601,3.6614,3.6779,3.666,3.6669,3.6675,3.6679,3.7051,3.7054,0,0,0,0,0,0,3.6092,3.6121,3.6359,3.6369,3.6208,3.6325,3.6345,3.6403,3.6499,3.651,3.6432,3.6428,3.6586,3.6602,3.662,3.6778,3.6671,3.668,3.6686,3.7047,3.7052,3.7056,0,0,0,0,0,0,3.6085,3.6113,3.6353,3.6245,3.6275,3.6335,3.64,3.6408,3.6449,3.6515,3.6526,3.6464,3.6583,3.6606,3.6726,3.6784,3.6684,3.6693,3.7042,3.7048,3.7054,3.7097,0,0,0,0,0,0,3.6075,3.6111,3.6163,3.6246,3.6281,3.6458,3.6404,3.6414,3.6467,3.6463,3.6548,3.6558,3.6582,3.6711,3.6736,3.6795,3.6701,3.7037,3.7045,3.7052,3.7091,3.7104,3.7115,0,0,0,0,0,3.6064,3.6169,3.6166,3.6194,3.6348,3.6461,3.6481,3.6507,3.6471,3.6523,3.6565,3.6556,3.6774,3.6723,3.6751,3.6815,3.7034,3.7043,3.7051,3.7086,3.7101,3.7115,0,0,0,0,0,0,3.6091,3.6181,3.6178,3.6314,3.638,3.6459,3.6525,3.6523,3.66,3.6594,3.6622,3.6641,3.676,3.68,3.6742,3.6946,3.6899,3.6914,3.6915,3.6931,3.6943,3.693,3.6709,0,0,0,0,0,3.6113,3.6199,3.6272,3.6385,3.6418,3.6466,3.6516,3.653,3.66,3.6627,3.6678,3.6745,3.6828,3.6882,3.6963,3.7097,3.7113,3.7154,3.7166,3.7176,3.7188,3.7257,3.7275,3.7085,3.7085,3.7085,0,0,3.6159,3.6218,3.6271,3.6391,3.6444,3.653,3.649,3.6583,3.6646,3.6641,3.6757,3.6796,3.6872,3.6999,3.7057,3.7035,3.7244,3.7187,3.7194,3.7201,3.7268,3.7286,3.7302,3.7091,3.709,3.7089,0,0,3.6286,3.6341,3.6439,3.6492,3.6573,3.6604,3.6627,3.6707,3.6732,3.6849,3.6846,3.6921,3.7065,3.7117,3.7163,3.7307,3.7299,3.7332,3.7395,3.7462,3.7477,3.749,3.7538,3.7555,3.7344,3.7344,3.7344,0,3.6333,3.6463,3.649,3.6583,3.6634,3.6634,3.6731,3.6782,3.6884,3.6919,3.6893,3.7071,3.7122,3.7259,3.7294,3.7332,3.7357,3.7322,3.7473,3.7487,3.75,3.7545,3.7563,3.7348,3.7347,3.7347,3.7347,0,3.6514,3.6604,3.6674,3.6771,3.6831,3.6926,3.6965,3.7022,3.703,3.7063,3.7179,3.7241,3.7332,3.7366,3.7376,3.7503,3.7487,3.7467,3.742,3.752,3.7563,3.7581,3.7352,3.7351,3.735,3.7349,0,0,3.6663,3.6773,3.6798,3.684,3.6928,3.6997,3.7091,3.718,3.7226,3.7296,3.7373,3.7493,3.7474,3.7526,3.7542,3.7601,3.7706,3.7574,3.7576,3.7593,3.7846,3.7857,3.7877,3.7703,3.7706,3.7709,3.7838,0,3.6796,3.6963,3.6988,3.7134,3.7215,3.7214,3.7295,3.7356,3.7389,3.7461,3.7497,3.758,3.7551,3.7582,3.7641,3.7681,3.7756,3.7672,3.7771,3.7774,3.7749,3.7901,3.7914,3.8033,3.7855,3.7858,3.786,0,3.6974,3.7047,3.7201,3.7274,3.7309,3.7381,3.7462,3.7533,3.7601,3.762,3.7677,3.7684,3.7778,3.7728,3.7856,3.7798,3.784,3.7865,3.7871,3.7879,3.7821,3.7909,3.8072,3.8089,3.7888,3.7886,3.7884,0,3.7062,3.72,3.7308,3.7346,3.7434,3.7484,3.7523,3.7588,3.7639,3.771,3.7742,3.7824,3.7867,3.7929,3.7957,3.7919,3.8082,3.8035,3.8097,3.8096,3.813,3.8127,3.8298,3.8162,3.8162,3.8162,3.8161,0,3.7206,3.7299,3.7349,3.7415,3.7518,3.7546,3.7646,3.7684,3.774,3.7812,3.7818,3.7885,3.7919,3.7991,3.8013,3.8113,3.8134,3.815,3.8154,3.8148,3.8145,3.8174,3.8165,3.8167,3.8166,3.8165,3.8164,0,3.7321,3.7359,3.7476,3.755,3.7571,3.7643,3.7705,3.7768,3.78,3.789,3.7913,3.7962,3.8046,3.8081,3.8184,3.8199,3.8313,3.8313,3.829,3.829,3.8349,3.8342,3.8543,3.8568,3.8418,3.842,3.8421,0,3.7409,3.748,3.7561,3.761,3.765,3.7729,3.778,3.7809,3.7861,3.7942,3.7995,3.8079,3.8147,3.8281,3.8325,3.8403,3.8403,3.8468,3.8414,3.8404,3.8399,3.8393,3.8398,3.8476,3.8478,3.8479,3.848,0,3.756,3.7574,3.7648,3.7728,3.7789,3.7853,3.7915,3.7954,3.7993,3.8051,3.8137,3.819,3.8294,3.8376,3.8456,3.8495,3.8493,3.8497,3.8515,3.8507,3.8489,3.8496,3.8313,3.8492,3.849,3.849,3.8489,3.8489,3.7662,3.7723,3.7789,3.787,3.792,3.7977,3.8039,3.8078,3.815,3.8237,3.825,3.834,3.8403,3.851,3.8552,3.8622,3.8605,3.8632,3.8638,3.8643,3.8645,3.8481,3.8637,3.8637,3.8636,3.8636,3.8636,0,3.7809,3.7851,3.7925,3.8012,3.8075,3.8069,3.8136,3.8189,3.8269,3.8328,3.8395,3.8491,3.857,3.8619,3.8698,3.8744,3.8745,3.8764,3.8759,3.8767,3.8658,3.8632,3.8761,3.8761,3.8761,3.8761,3.8761,3.8761,3.7893,3.7996,3.8017,3.8143,3.8184,3.8273,3.8312,3.8364,3.8411,3.8518,3.8584,3.8615,3.867,3.8752,3.8823,3.8835,3.8862,3.8881,3.8892,3.8788,3.8775,3.8763,3.8739,3.8888,3.8888,3.8995,3.8996,3.8997]},{"header":{"parameterUnit":"m.s-1","parameterCategory":1,"la1":30.2991,"la2":30.254,"lo1":-89.0895,"lo2":-89.0444,"dy":0.0017,"dx":0.0017,"nx":28,"ny":28,"refTime":"2024-07-17T21:00:00:Z","depth":0,"parameterNumber":3,"parameterNumberName":"V-component_of_WINDS"},"data":[0,0,0,0,0,0,0,0,0,0,0,0,0,0,0,0,0,0,0,0,0,0,0,0,0,0,0,0,0,0,0,0,0,0,0,0,0,0,0,0,0,0,0,0,0,0,0,0,0,0,0,0,0,0,0,0,0,0,0.2938,0.2937,0,0.2881,0.2881,0.288,0.289,0.2891,0.2892,0.2893,0.283,0.2828,0.2825,0,0,0,0,0,0,0,0,0,0,0,0,0,0.3049,0.3047,0.2938,0.2937,0.2937,0.2881,0.2881,0.288,0.289,0.2891,0.2892,0.2894,0.2831,0.2828,0.2825,0,0,0,0,0,0,0,0,0,0,0,0,0,0.2997,0.3046,0.2938,0.2935,0.2934,0.2882,0.2881,0.288,0.289,0.2891,0.2893,0.2894,0.2832,0.2828,0.2824,0.277,0,0,0.2812,0.2811,0,0,0,0,0,0,0,0,0.3,0.2993,0.2936,0.2935,0.2934,0.2894,0.2897,0.2843,0.2889,0.2906,0.2893,0.2895,0.285,0.2845,0.2831,0.2767,0.2764,0.2812,0.281,0.2808,0.2807,0,0,0,0,0,0,0,0.3004,0.2996,0.2916,0.2935,0.2934,0.2935,0.2929,0.2887,0.287,0.2905,0.2906,0.2899,0.285,0.2834,0.2829,0.2763,0.2812,0.2809,0.2806,0.2805,0.2649,0.2647,0,0,0,0,0,0,0.3009,0.2999,0.2917,0.2914,0.2972,0.2931,0.2925,0.2906,0.2871,0.2867,0.2898,0.29,0.284,0.2834,0.2827,0.2759,0.2808,0.2804,0.2802,0.265,0.2648,0.2646,0,0,0,0,0,0,0.3012,0.3002,0.292,0.2956,0.2946,0.2928,0.2906,0.2904,0.2888,0.2865,0.2862,0.2886,0.2841,0.2833,0.2784,0.2757,0.2803,0.2799,0.2652,0.265,0.2647,0.2623,0,0,0,0,0,0,0.3015,0.3003,0.2983,0.2956,0.2944,0.2879,0.2904,0.2901,0.2882,0.2884,0.2853,0.2849,0.2842,0.2789,0.278,0.2752,0.2796,0.2655,0.2651,0.2648,0.2627,0.262,0.2615,0,0,0,0,0,0.3019,0.2978,0.2982,0.2972,0.292,0.2877,0.287,0.2864,0.288,0.2859,0.2844,0.285,0.2762,0.2784,0.2773,0.2745,0.2656,0.2652,0.2648,0.2629,0.2622,0.2615,0,0,0,0,0,0,0.3002,0.2975,0.2979,0.2929,0.2906,0.2879,0.2853,0.2857,0.2827,0.283,0.2822,0.2815,0.2764,0.275,0.2776,0.2688,0.2711,0.2705,0.27,0.2693,0.2687,0.2691,0.2793,0,0,0,0,0,0.2993,0.2962,0.294,0.2898,0.2886,0.2871,0.2853,0.285,0.2825,0.2814,0.2796,0.277,0.2735,0.2713,0.2681,0.2624,0.2616,0.2599,0.2593,0.2589,0.2583,0.2549,0.2541,0.2633,0.2633,0.2633,0,0,0.2973,0.2954,0.2935,0.2894,0.2875,0.2842,0.2863,0.2827,0.2802,0.2808,0.2761,0.2746,0.2716,0.2663,0.2638,0.2649,0.2555,0.2583,0.258,0.2577,0.2544,0.2535,0.2528,0.263,0.2631,0.2631,0,0,0.2919,0.2903,0.2866,0.2847,0.2819,0.2809,0.28,0.2773,0.2763,0.2716,0.2719,0.2688,0.263,0.2608,0.2589,0.2525,0.2529,0.2515,0.2484,0.2452,0.2444,0.2438,0.2413,0.2404,0.2509,0.2509,0.2509,0,0.2898,0.285,0.2845,0.2809,0.2789,0.2795,0.2755,0.2736,0.2698,0.2684,0.2697,0.2623,0.2603,0.2543,0.2528,0.2513,0.25,0.2518,0.2446,0.2439,0.2433,0.2409,0.24,0.2507,0.2508,0.2508,0.2508,0,0.2823,0.279,0.2762,0.2727,0.2704,0.2666,0.2654,0.2631,0.2629,0.2618,0.2568,0.2544,0.2506,0.2492,0.249,0.2431,0.2438,0.2448,0.2471,0.2423,0.24,0.2391,0.2505,0.2506,0.2506,0.2507,0,0,0.2759,0.272,0.271,0.2693,0.2662,0.2635,0.2595,0.256,0.2539,0.2512,0.2478,0.2428,0.2437,0.2415,0.2411,0.2382,0.233,0.2396,0.2395,0.2383,0.2261,0.2252,0.2242,0.2333,0.2331,0.233,0.2263,0,0.2701,0.2635,0.2628,0.2568,0.2535,0.2538,0.2504,0.248,0.2467,0.2436,0.2421,0.2385,0.2401,0.2388,0.236,0.2343,0.2305,0.2347,0.2298,0.2297,0.2305,0.2231,0.2222,0.216,0.2254,0.2253,0.2252,0,0.2626,0.2597,0.2533,0.2505,0.2491,0.246,0.2426,0.2397,0.2368,0.236,0.2336,0.2334,0.2291,0.2316,0.2255,0.2284,0.2263,0.2251,0.2249,0.2243,0.2271,0.2222,0.2141,0.2131,0.2238,0.2239,0.224,0,0.2582,0.2528,0.2483,0.2468,0.2434,0.2412,0.2397,0.237,0.2348,0.2316,0.2302,0.2266,0.2245,0.2216,0.2204,0.2223,0.2143,0.2167,0.2134,0.2134,0.2116,0.2117,0.203,0.2105,0.2105,0.2105,0.2105,0,0.2518,0.2479,0.2463,0.2435,0.2389,0.2381,0.2336,0.2321,0.2297,0.2264,0.2264,0.2233,0.2219,0.2185,0.2175,0.2125,0.2116,0.2107,0.2105,0.2106,0.2107,0.2092,0.2096,0.2103,0.2103,0.2104,0.2104,0,0.2463,0.2451,0.2401,0.2373,0.2364,0.2332,0.2307,0.2278,0.2265,0.2223,0.2213,0.2192,0.2152,0.2137,0.2088,0.2081,0.2022,0.2024,0.2032,0.2031,0.1998,0.2001,0.1896,0.1881,0.1968,0.1967,0.1967,0,0.2422,0.2392,0.236,0.2339,0.2323,0.2288,0.2266,0.2256,0.2232,0.2196,0.2171,0.2131,0.2099,0.2033,0.2012,0.1974,0.1974,0.194,0.1968,0.197,0.1971,0.1972,0.1968,0.1934,0.1933,0.1933,0.1932,0,0.2351,0.2346,0.2315,0.228,0.2254,0.2226,0.2199,0.2181,0.2166,0.2139,0.2098,0.2073,0.2022,0.1981,0.1941,0.1923,0.1924,0.1923,0.1913,0.1914,0.192,0.1914,0.2016,0.1926,0.1926,0.1927,0.1927,0.1927,0.23,0.2272,0.2245,0.221,0.2188,0.2163,0.2134,0.2118,0.2084,0.2043,0.2039,0.1994,0.1963,0.191,0.189,0.1853,0.1862,0.1848,0.1844,0.184,0.1837,0.1926,0.1846,0.1846,0.1846,0.1846,0.1846,0,0.2227,0.221,0.2177,0.2139,0.211,0.2116,0.2085,0.206,0.2021,0.1994,0.1962,0.1913,0.1873,0.1849,0.1808,0.1783,0.1782,0.1773,0.1774,0.1769,0.1832,0.1844,0.1774,0.1774,0.1774,0.1774,0.1774,0.1774,0.2186,0.2139,0.213,0.2071,0.2054,0.2011,0.1993,0.1968,0.1946,0.1893,0.186,0.1845,0.1817,0.1774,0.1737,0.1731,0.1715,0.1704,0.1698,0.1757,0.1765,0.1772,0.1783,0.1701,0.1701,0.1638,0.1637,0.1637]}]]